Location: Harwich
(41.7160°N, 69.9939°W)
Time: 09:41:38
(UTC+02:00)

A-11 Canister half - Pass Details

Date: 24 February 2024
Orbit: 1513 x 1686 km, 47.2° (Epoch: 24 April)

Event Time Altitude Azimuth Distance (km) Brightness Sun altitude
Exits shadow 11:54:42 - 289° (WNW) 4,308 10.7 -6.1°
Reaches altitude 10° 11:56:00 10° 291° (WNW) 3,910 10.5 -5.8°
Maximum altitude 12:06:00 72° 15° (NNE) 1,686 9.3 -4.0°
Drops below altitude 10° 12:15:38 10° 100° (E) 3,769 13.2 -2.2°
Sets 12:18:41 0° 103° (ESE) 4,731 15.6 -1.7°
